Temp
27 27 27 27 27 27 27 27 27 28 28 28 28 28 28 28 28 28 28 28 28 28 28 28 27 27 27 27 27 27 27 27 27 27 26 26 26 26 27 26 26 26 26 26 27 28 28 28 27 27 27 28 28 28 28 28 28 27 27 27 27 26 26 25 25 25 25 25 25 25 25 25 25 25 25 25 25 24 23 24 24 24 24 24 24
28 27 28 28 28 27 27 27 27 28 28 28 28 28 28 28 29 29 29 28 28 28 28 28 28 27 27 27 28 28 27 27 27 27 27 26 26 27 27 27 26 26 26 26 27 27 27 27 27 27 27 27 27 27 27 27 28 27 27 27 27 27 26 26 25 25 25 25 25 25 25 25 24 24 24 23 23 22 23 23 23 24 24 23 23
29 28 28 28 28 28 28 28 27 28 28 28 28 29 29 29 29 29 29 29 28 28 28 28 28 28 28 28 28 28 28 27 27 28 27 27 26 27 27 27 26 26 26 26 27 27 27 27 27 27 27 28 28 27 27 27 27 27 27 27 27 27 26 25 25 25 24 24 25 25 25 25 23 22 22 22 21 21 23 23 23 23 23 23 23
28 28 28 28 28 28 28 28 28 28 28 28 28 29 29 29 29 29 29 29 29 28 28 28 28 28 28 28 28 28 28 28 28 28 28 27 27 26 27 27 27 26 26 27 27 27 27 27 27 27 27 28 27 27 27 27 27 27 27 27 27 26 26 25 25 25 24 24 24 24 24 24 23 22 23 22 21 21 22 22 22 22 22 22 22
26 26 28 29 28 29 29 28 28 28 28 29 29 29 29 29 29 28 29 29 29 29 28 28 28 28 28 28 28 28 28 28 28 28 28 28 27 27 27 27 27 27 27 27 27 27 27 27 27 27 27 27 27 27 27 27 27 26 26 26 26 26 26 25 25 25 24 24 24 24 24 23 23 23 23 22 22 22 22 22 22 22 21 21 21
26 24 26 29 29 29 29 29 29 29 29 29 29 29 29 29 29 28 28 29 29 29 28 28 28 28 28 28 28 28 28 28 28 28 28 28 28 27 27 27 27 27 27 27 27 27 27 27 27 27 27 27 27 27 27 26 26 26 26 26 26 25 25 25 24 24 24 24 24 24 24 23 23 23 22 22 22 21 21 22 22 21 21 21 21
26 23 23 27 29 29 29 29 29 29 29 29 29 29 29 29 29 29 28 28 29 29 28 28 28 28 28 28 28 28 28 28 28 28 28 28 28 28 28 27 27 27 27 27 27 27 27 27 27 27 27 27 27 27 26 26 26 26 25 25 25 25 25 24 24 24 24 24 24 24 24 23 23 22 22 22 22 21 21 21 21 21 21 21 20
26 23 22 25 28 29 29 29 29 29 29 29 29 30 30 30 29 29 29 29 29 29 29 28 28 28 27 27 28 28 28 28 28 28 27 28 28 28 28 27 27 27 27 27 27 27 27 27 27 26 26 26 26 26 26 26 26 25 25 25 25 25 25 25 24 24 24 24 24 23 23 23 22 22 22 22 22 21 21 21 21 21 20 20 20
25 24 24 26 27 27 28 29 29 29 29 29 29 29 30 30 30 29 29 29 29 29 29 28 28 28 28 27 27 28 28 28 27 27 27 27 27 27 27 27 27 27 27 27 27 27 26 26 26 25 25 25 25 26 26 26 26 25 25 25 25 25 25 24 24 24 23 23 23 23 23 22 22 22 22 22 21 21 21 21 21 20 20 20 20
24 23 24 25 26 27 27 28 28 29 29 29 29 29 29 30 30 30 29 29 29 29 29 29 28 27 27 28 27 27 28 28 27 27 27 27 27 27 28 28 27 27 27 27 26 26 26 26 25 25 25 25 25 25 25 26 26 25 25 25 25 24 24 24 24 23 23 22 22 23 23 22 21 21 21 21 21 21 20 20 20 20 20 20 19
24 23 22 24 25 26 26 27 27 28 28 29 29 29 29 29 30 30 30 29 29 29 28 29 28 28 27 27 27 27 28 28 27 27 27 27 27 27 27 27 27 27 26 26 26 26 26 25 25 26 26 26 26 25 24 25 25 25 25 25 24 24 24 23 23 22 22 22 22 22 22 22 21 21 21 21 21 21 20 20 20 20 20 20 19
24 23 23 24 25 25 25 26 27 27 27 28 28 29 29 29 29 29 29 29 29 28 28 28 28 28 27 27 27 27 28 28 28 28 27 27 27 27 27 26 26 26 26 26 26 26 26 25 25 26 26 26 25 24 24 24 25 25 25 24 24 24 23 23 22 22 22 22 21 21 21 21 21 20 20 20 21 21 20 20 20 20 20 19 19
22 23 24 25 25 25 25 25 26 26 27 27 27 28 28 28 28 29 29 29 29 28 28 28 28 28 28 27 27 27 27 27 28 28 27 27 27 27 27 26 26 26 26 26 26 26 26 26 25 26 26 25 25 24 24 24 24 24 24 23 22 22 22 22 22 22 21 21 21 21 20 20 20 20 20 20 20 20 20 20 20 20 19 19 18
21 22 23 24 25 25 24 24 25 26 26 26 27 27 28 28 28 28 28 28 28 28 28 28 28 28 28 28 27 27 27 27 27 28 27 27 27 27 27 26 26 26 26 26 26 26 26 26 25 25 25 25 25 24 24 24 24 23 22 22 21 21 21 21 21 21 21 21 21 20 20 20 20 20 20 20 20 20 20 20 20 19 18 18 18
22 22 23 24 24 24 24 24 24 25 25 26 26 26 27 27 27 27 27 28 28 28 28 27 27 27 27 28 27 27 27 27 27 27 27 27 27 27 26 26 26 27 27 26 26 26 26 26 25 25 25 25 24 24 24 24 23 23 22 21 21 20 21 21 21 21 21 21 21 20 20 20 20 20 20 20 20 20 20 20 20 19 19 18 18
23 23 23 23 24 24 24 23 23 23 24 25 26 26 26 26 26 27 27 27 27 27 27 27 27 27 27 27 27 27 28 28 27 27 27 27 26 26 26 26 26 26 26 26 27 26 26 25 24 23 24 24 24 24 24 24 23 22 21 20 20 20 20 20 20 20 20 20 20 20 20 20 20 20 20 20 19 20 20 20 20 19 19 19 19
23 23 23 23 23 23 23 23 23 23 23 24 25 25 25 25 26 26 26 26 26 26 27 27 27 27 27 27 27 27 27 27 27 27 27 27 26 26 26 25 25 25 26 26 26 26 26 25 23 22 23 24 25 24 23 23 23 22 20 20 19 19 20 19 19 19 19 20 19 19 19 19 19 19 19 20 20 20 20 20 19 19 19 19 19
23 23 23 22 22 22 22 22 22 22 23 23 24 25 25 25 25 26 26 26 26 26 26 26 27 27 26 26 26 26 26 27 27 27 27 27 26 26 25 25 25 25 25 26 26 26 25 25 24 22 23 24 24 23 23 22 22 21 20 20 19 19 19 19 19 19 19 19 19 18 18 18 19 19 19 19 20 20 20 20 19 20 20 19 18
23 22 22 22 22 22 22 22 22 22 22 23 23 24 24 24 24 24 25 25 26 26 25 25 26 26 26 26 26 26 26 26 26 26 26 26 26 26 25 25 25 25 25 25 25 25 25 24 23 23 23 23 23 22 22 22 22 21 21 20 19 19 19 19 19 19 18 18 18 18 18 18 18 18 19 19 20 20 20 20 20 20 20 19 18
22 22 22 22 21 22 22 21 21 21 22 22 22 22 23 23 23 23 24 24 24 25 25 24 24 25 25 25 26 25 25 26 26 26 26 26 25 25 25 25 25 25 25 25 25 24 23 22 21 22 22 22 22 22 22 22 22 22 21 20 19 19 19 18 18 18 18 18 18 18 18 18 18 18 18 19 19 19 20 20 20 20 19 19 18
21 21 21 21 21 21 21 21 21 21 21 21 21 21 22 22 22 23 23 23 23 23 24 23 23 23 22 22 23 23 23 25 25 25 25 25 25 25 24 24 24 24 24 24 23 22 21 20 20 21 21 22 22 21 21 21 21 21 21 20 20 19 19 18 17 17 18 18 18 18 18 18 18 18 18 18 18 19 19 19 19 19 19 18 18
21 21 21 21 21 21 21 21 21 20 20 20 20 21 21 21 21 22 22 22 22 22 22 22 22 21 20 20 22 22 22 23 24 24 24 24 24 24 24 23 23 23 23 22 21 21 21 21 20 20 21 22 21 21 21 21 21 20 20 20 19 18 18 17 17 17 17 17 17 17 17 17 17 17 17 17 18 18 18 19 19 19 18 18 17
20 21 20 20 20 20 20 20 20 20 19 20 20 20 21 21 21 21 21 21 21 22 21 21 20 20 20 21 21 21 21 22 22 22 23 23 23 23 23 22 22 22 22 22 21 21 20 20 20 21 21 21 21 21 21 20 20 20 19 19 18 18 18 18 17 17 17 17 17 17 17 17 17 17 17 17 17 17 17 18 18 18 18 17 17
19 19 19 19 20 20 19 19 19 19 19 19 20 20 20 20 20 20 20 21 21 21 20 20 20 19 20 20 20 20 20 21 21 21 21 21 21 21 21 21 21 21 21 21 21 20 19 20 20 20 21 21 21 21 20 19 19 19 19 19 18 18 17 17 17 17 17 17 18 18 17 17 17 17 17 17 17 17 17 17 17 17 17 17 17
18 18 17 18 19 19 19 19 19 19 19 19 20 20 20 20 20 20 20 20 21 20 19 19 19 19 19 19 19 19 19 20 20 21 21 21 21 21 20 20 20 20 21 21 21 19 19 20 20 20 20 20 20 20 19 18 18 18 18 18 18 17 17 17 17 17 17 18 18 17 17 17 17 17 17 17 18 18 17 17 17 17 17 17 17
18 17 17 17 17 17 18 18 19 19 19 19 20 20 20 19 19 20 20 20 20 20 19 18 18 19 19 19 19 19 19 19 20 20 20 20 20 20 19 19 19 19 20 20 20 19 19 20 20 19 19 19 19 19 18 17 17 17 18 17 17 17 17 17 18 18 18 18 18 17 17 17 17 17 17 18 18 18 18 17 17 17 17 17 17
17 17 16 16 16 16 16 16 17 18 18 19 19 19 19 20 20 20 20 19 19 19 19 18 18 18 18 18 18 18 18 18 19 19 18 18 19 19 19 18 18 19 19 19 19 19 19 19 19 19 18 18 18 17 17 16 17 17 17 17 17 18 18 18 18 18 18 18 18 18 17 17 17 17 18 18 18 18 18 18 17 17 17 17 16
18 17 16 16 15 15 15 15 15 16 17 18 18 18 18 19 19 19 19 19 19 19 19 19 18 18 18 18 17 17 17 17 18 18 18 18 18 18 19 18 18 18 18 18 18 18 18 17 17 17 17 16 16 16 16 16 16 16 17 17 18 18 18 18 18 18 18 19 18 18 17 17 18 18 17 17 17 17 18 18 18 17 17 17 17
18 17 17 16 15 15 14 14 14 15 15 16 16 16 17 17 18 18 19 19 19 19 19 19 18 18 18 18 18 17 17 17 17 18 18 18 18 18 18 18 18 18 18 18 18 17 16 16 16 16 16 16 15 16 16 16 16 17 17 18 18 18 18 18 18 19 19 19 18 18 18 18 18 17 17 17 17 17 17 17 18 18 18 17 17
18 18 17 17 16 16 15 14 14 14 14 15 15 15 15 16 17 18 18 18 19 19 19 19 18 18 18 18 18 17 17 17 17 17 17 18 18 18 18 17 17 17 17 17 17 16 16 16 16 16 16 16 16 16 16 16 17 17 17 17 18 18 18 18 19 19 19 19 19 18 18 18 18 17 17 17 16 17 17 17 17 17 17 17 17
18 18 18 17 17 17 16 15 15 14 14 14 15 14 14 15 16 17 17 18 18 18 18 18 18 18 18 18 17 17 17 17 17 17 17 17 17 17 17 17 17 17 17 17 17 16 16 16 16 16 17 17 17 17 17 17 17 17 18 18 18 19 19 19 19 19 19 19 19 19 19 18 18 17 17 17 17 17 17 17 17 17 17 17 17
18 18 17 17 17 17 17 16 15 15 15 14 14 14 14 14 14 15 16 17 17 17 17 17 17 17 17 17 18 17 17 17 17 17 17 17 17 17 17 17 17 17 17 17 18 17 17 18 18 18 18 18 18 18 18 18 18 19 19 19 19 19 19 19 19 19 19 19 19 19 18 18 18 17 17 17 17 17 17 17 17 17 17 17 17
18 18 18 17 17 17 17 17 16 16 16 15 15 14 14 13 13 13 14 15 16 16 16 16 16 16 17 17 17 17 16 16 17 17 17 17 17 17 17 17 17 17 18 18 19 19 19 19 19 19 19 19 19 19 19 19 20 20 20 20 20 19 19 20 19 19 19 19 19 18 18 18 18 17 17 17 17 17 17 17 17 17 17 16 16
18 18 18 18 18 17 17 17 17 17 17 16 16 15 15 14 14 14 14 15 15 15 15 16 16 16 16 16 16 17 16 16 17 17 17 17 17 17 17 17 17 18 18 19 19 20 20 20 19 20 20 20 20 20 20 20 20 20 20 20 20 20 20 19 19 19 19 19 18 18 18 18 18 17 17 17 17 17 17 17 17 17 17 16 17
19 19 19 18 18 18 18 18 18 18 17 17 17 17 16 16 16 16 16 15 15 14 15 15 15 16 16 16 16 17 17 17 17 17 17 17 17 17 17 18 18 18 19 19 20 20 20 20 20 20 21 21 21 21 21 21 21 20 20 20 20 20 19 19 19 19 19 18 18 18 18 18 17 17 17 17 17 17 17 17 17 17 17 17 17
19 19 19 19 19 19 18 18 18 18 18 18 18 18 18 18 18 18 17 16 16 15 15 15 15 16 16 16 17 17 17 17 17 17 17 17 17 17 18 18 19 19 19 20 20 21 21 21 21 22 22 21 21 21 21 21 21 20 20 19 19 19 19 19 19 19 19 18 18 18 18 18 17 18 18 18 18 18 18 18 17 17 17 16 16
18 18 18 18 18 18 18 18 19 19 19 19 19 19 19 19 19 18 18 17 16 16 15 15 16 16 16 16 17 17 17 17 17 17 18 18 18 18 19 20 20 20 20 21 21 22 22 22 22 22 22 21 21 21 21 21 21 20 19 19 19 19 19 19 19 19 18 18 18 18 18 18 18 18 18 18 18 18 18 18 17 17 16 16 16
19 19 19 18 18 19 19 19 19 19 20 20 20 19 19 19 18 18 18 17 17 17 17 17 17 17 17 17 17 17 18 17 17 18 18 18 18 19 20 21 21 21 21 22 22 22 22 22 22 22 21 21 21 21 21 21 20 20 19 19 19 19 19 19 19 19 18 18 18 18 18 18 18 18 19 18 18 18 18 18 17 17 16 16 16
20 20 20 20 20 20 20 20 21 21 21 20 20 20 19 19 19 19 19 19 19 18 18 18 18 18 17 17 17 18 18 18 18 18 19 19 20 20 21 22 22 22 22 22 22 21 21 21 21 21 21 21 21 21 21 20 20 20 19 19 19 19 19 19 18 18 18 18 18 18 18 18 18 18 18 18 18 18 17 17 17 17 16 16 16
21 21 21 21 22 22 22 22 22 22 22 22 21 21 21 20 20 20 20 20 20 19 19 19 19 18 18 18 18 18 19 20 21 20 20 21 21 22 22 22 22 22 22 22 21 21 21 21 20 20 20 20 20 20 20 20 19 19 19 19 19 19 19 18 18 18 18 18 18 18 18 18 18 18 18 18 18 17 17 17 17 16 16 16 16
22 22 22 22 23 23 23 23 23 23 23 23 22 22 22 22 22 21 21 21 20 20 19 19 19 19 19 19 19 19 20 21 22 22 22 22 22 22 22 22 22 22 22 22 21 21 20 20 20 20 20 20 19 19 19 19 19 18 18 18 18 18 18 18 18 17 17 17 18 18 18 18 18 17 17 17 17 17 17 16 16 16 16 16 16
23 23 23 23 23 23 23 23 23 23 23 23 23 23 23 23 22 22 22 21 21 20 20 19 19 19 19 19 19 20 20 21 22 22 22 22 22 22 22 22 22 22 22 21 21 21 20 20 20 20 20 19 19 19 19 19 19 19 18 18 17 17 17 18 17 17 17 17 17 18 17 17 17 17 17 17 17 17 16 16 16 16 16 16 15
23 23 24 23 23 23 23 23 23 23 23 23 23 23 23 23 23 22 22 22 21 21 20 20 19 19 19 19 20 20 21 21 22 22 22 22 22 22 22 22 22 21 21 21 21 20 20 20 20 20 20 19 19 19 19 19 20 19 19 19 18 18 18 18 18 17 17 17 17 17 17 17 17 17 17 17 17 17 16 16 16 16 16 16 15
24 24 24 23 23 23 23 23 23 23 23 23 23 23 24 23 23 23 23 22 21 21 21 20 20 20 20 20 20 21 21 22 22 22 22 22 22 22 22 21 21 21 21 21 20 20 20 20 19 19 19 19 19 19 19 20 20 20 19 19 19 19 18 18 18 18 18 17 17 17 17 17 17 16 16 16 16 16 16 16 16 16 15 15 15
24 24 24 23 23 23 23 23 22 22 23 23 23 23 24 24 24 24 23 22 22 22 21 21 21 21 21 21 21 21 22 23 23 22 22 22 22 22 21 21 21 21 20 20 20 20 20 20 19 19 19 19 18 18 18 19 19 19 19 19 19 18 18 18 18 18 17 17 17 17 17 17 16 16 16 16 16 15 15 15 15 15 15 14 14
24 24 24 23 23 23 23 23 22 22 23 23 23 23 23 24 24 24 23 23 23 22 22 21 21 21 21 21 21 22 22 23 23 22 22 22 22 21 21 20 20 20 20 20 20 20 19 19 19 19 19 18 18 18 18 18 18 18 18 18 18 18 18 18 18 17 17 17 17 17 17 16 16 15 15 15 15 15 15 14 14 14 14 14 14
24 24 24 24 23 23 23 23 23 23 23 23 23 23 23 23 23 23 23 23 23 23 23 22 22 22 22 22 22 22 22 22 22 22 21 21 21 21 20 20 20 20 19 19 19 19 19 19 18 18 18 18 18 18 17 17 17 18 18 18 18 17 17 17 17 17 17 17 17 17 16 16 16 15 15 15 15 15 14 14 14 14 13 13 13
24 24 24 24 23 23 23 23 23 23 23 23 23 23 23 23 23 23 22 22 23 23 23 23 23 23 22 22 22 22 22 22 22 22 21 21 20 20 19 19 19 19 19 19 19 19 18 18 18 18 17 17 17 17 17 17 17 17 17 17 17 17 17 17 17 16 16 16 16 16 16 15 15 15 15 15 14 14 14 14 14 13 13 13 13
24 24 24 24 23 23 23 23 23 23 23 23 22 22 23 23 23 23 22 22 22 22 23 23 23 23 23 22 22 22 22 22 21 21 21 20 19 19 19 19 19 18 18 18 18 18 18 17 17 17 17 16 16 16 17 17 17 17 16 16 16 16 16 16 16 16 15 15 15 15 15 15 14 14 14 14 14 13 13 13 13 13 13 13 13
23 23 24 23 23 23 23 23 23 23 23 22 22 22 22 22 23 22 22 22 22 22 22 22 22 22 22 22 22 21 21 21 21 21 20 19 19 18 18 18 18 18 18 17 17 17 17 17 17 16 16 15 15 16 16 16 16 15 15 15 15 15 15 15 15 15 15 15 15 15 14 14 14 13 13 13 13 13 13 12 12 12 12 12 12
23 23 23 23 23 23 23 23 23 22 22 22 22 22 22 22 22 22 22 22 22 22 22 22 22 22 22 21 21 21 21 21 21 20 20 19 18 18 18 18 18 18 17 17 17 17 17 16 16 16 15 15 15 15 15 15 15 15 15 14 14 14 14 14 14 14 14 14 14 14 14 13 13 13 13 13 13 12 12 12 12 12 12 12 12
Height
784 785 786 786 787 787 789 789 791 792 792 793 794 794 795 796 797 798 799 801 802 803 805 805 807 808 809 810 811 812 813 814 815 816 817 818 819 821 821 822 823 824 825 826 826 827 828 828 830 830 831 831 832 832 833 833 833 833 834 835 834 834 834 834 835 834 834 834 833 832 831 831 831 831 831 831 831 832 831 829 829 829 829 829 829
782 784 784 785 785 786 787 788 789 790 791 792 792 793 794 795 796 797 798 799 800 802 803 804 805 806 808 809 810 810 811 813 814 815 816 817 818 819 820 820 822 823 824 825 825 826 827 827 828 829 830 830 831 831 832 832 832 833 833 833 833 833 833 833 833 833 833 833 832 831 830 831 831 831 832 832 832 833 832 830 829 829 829 829 829
779 781 782 783 784 785 786 786 787 788 789 790 791 792 793 794 795 796 796 798 799 800 801 803 804 805 806 807 808 809 810 811 813 814 814 815 817 818 819 819 820 822 822 823 824 825 826 826 827 828 828 829 829 830 830 831 831 832 832 832 832 832 832 832 832 832 832 831 831 831 831 832 833 833 834 834 834 834 833 830 829 829 829 829 829
778 780 781 782 782 783 784 784 785 786 787 788 789 790 791 792 794 795 795 796 797 799 800 801 803 803 804 806 807 808 809 810 811 812 813 814 815 817 817 818 819 820 821 822 822 823 824 825 826 826 827 827 828 828 829 830 830 830 831 831 831 831 830 830 830 830 830 830 830 831 831 832 832 831 830 832 833 833 832 831 830 829 829 829 829
779 781 780 780 780 781 782 783 784 784 785 786 787 789 790 791 792 794 795 795 796 797 798 800 801 802 803 804 805 806 807 808 810 811 812 813 814 815 816 817 817 818 819 820 821 822 823 823 824 825 825 826 826 827 828 828 829 829 829 829 829 829 828 829 829 828 829 829 829 830 830 831 830 828 828 830 832 831 830 830 829 829 829 830 830
778 782 781 779 779 779 780 780 781 782 784 784 785 787 788 789 791 792 794 795 795 796 797 799 800 801 802 803 804 805 806 807 808 810 811 812 813 814 814 815 816 817 818 819 820 821 821 822 823 823 824 825 825 826 826 827 827 827 827 827 827 827 828 828 828 828 828 828 828 829 829 829 828 828 828 829 830 830 829 828 828 829 829 830 830
776 783 785 780 777 777 777 778 779 780 782 783 784 785 786 787 789 791 793 794 795 796 796 798 799 800 802 802 803 804 805 806 807 808 809 810 811 812 813 814 815 816 817 817 818 819 820 821 822 823 823 823 824 824 824 825 826 826 826 826 826 827 827 827 827 827 827 827 827 827 828 828 827 827 827 827 827 827 827 827 827 828 828 829 829
773 781 785 779 776 776 776 777 777 778 780 781 782 783 784 785 787 788 791 792 793 794 795 797 798 799 801 801 802 803 803 804 805 806 807 808 809 810 811 812 813 814 815 816 816 817 818 819 820 821 823 823 823 823 823 824 825 825 826 825 825 826 826 826 826 826 826 826 826 826 827 827 826 826 826 825 825 825 825 825 826 826 828 828 829
768 775 780 777 775 775 775 775 776 777 778 779 780 781 782 784 785 786 788 790 792 793 794 796 797 798 799 800 801 802 802 803 804 805 805 806 807 808 809 810 811 812 813 813 815 815 817 818 818 819 820 821 821 821 821 822 823 824 824 824 824 825 825 825 825 824 824 824 825 825 826 826 825 824 824 824 824 825 825 825 825 826 827 827 829
765 771 776 776 774 773 774 774 775 775 776 777 779 780 781 782 783 785 786 788 790 791 793 794 795 797 798 799 800 801 801 802 802 803 804 805 806 807 807 808 809 810 811 812 813 814 815 817 817 817 818 819 819 819 819 821 822 823 823 823 823 823 823 824 823 822 823 823 823 824 824 825 824 824 824 824 824 824 825 825 826 826 826 827 828
767 770 775 776 773 771 772 773 773 774 774 776 777 778 780 781 782 783 785 786 788 790 791 793 794 796 797 798 799 799 800 801 801 801 803 804 805 806 806 807 807 808 810 810 812 813 814 815 815 815 816 817 817 817 818 820 820 820 821 821 821 821 822 822 822 822 822 823 823 823 824 824 823 823 823 823 824 824 824 824 825 825 826 826 828
768 769 771 772 770 770 771 771 771 772 773 774 775 776 778 780 781 782 783 785 787 788 790 792 793 794 795 796 798 798 798 799 799 800 801 802 804 805 805 806 807 808 809 809 811 812 813 813 813 813 814 815 815 816 817 818 818 818 819 819 820 820 820 821 821 821 822 822 823 823 823 823 823 823 823 823 823 823 823 823 824 824 825 826 827
767 767 766 766 766 767 769 769 769 771 771 773 774 774 776 778 779 781 782 783 785 786 788 790 791 793 794 795 796 796 797 798 798 798 799 800 802 803 804 805 805 806 807 808 810 811 811 812 812 812 812 813 814 814 815 816 817 817 818 818 819 819 819 819 820 820 821 821 822 823 823 823 822 822 822 822 822 822 822 822 823 823 824 826 827
766 765 763 762 762 764 766 766 768 769 769 771 772 772 774 776 777 779 780 782 783 784 786 788 790 792 793 794 795 795 796 797 798 798 799 799 801 802 803 804 804 805 806 807 808 809 809 810 810 810 811 811 812 813 813 815 815 815 817 818 818 818 818 818 819 819 820 820 821 822 822 822 821 821 821 821 822 822 822 822 822 823 824 826 828
760 759 758 757 758 759 761 762 764 765 766 768 769 770 772 773 774 777 778 780 781 782 783 785 787 790 791 792 793 794 795 796 796 797 798 798 800 801 802 803 804 805 805 806 807 807 807 808 809 809 809 809 810 811 812 813 813 814 816 817 817 817 817 818 818 819 819 820 821 821 821 821 821 821 821 821 821 822 822 822 823 823 825 826 828
753 753 752 751 753 754 755 756 757 759 761 763 765 767 769 770 771 773 775 777 779 780 781 782 784 787 789 791 792 793 794 794 794 795 796 797 798 799 800 802 803 803 804 805 805 805 805 805 807 808 809 808 809 809 810 811 812 814 815 816 816 816 817 818 818 818 819 819 820 821 821 821 821 821 821 821 822 822 823 823 824 824 825 827 829
748 748 748 748 749 750 751 752 753 755 756 758 760 762 764 766 768 769 771 773 775 777 778 779 781 784 786 788 790 791 792 792 793 794 794 796 797 798 799 800 801 802 803 803 803 803 803 803 804 806 808 807 807 808 809 811 812 813 814 814 815 816 817 818 818 818 819 819 820 821 821 821 821 821 821 822 822 822 823 823 824 825 826 827 829
745 744 745 746 747 748 750 751 752 754 754 754 756 757 759 762 764 765 767 769 771 774 776 777 779 781 784 786 788 789 791 791 792 792 793 794 795 796 798 799 800 801 801 801 801 800 801 802 802 804 805 804 805 807 809 810 811 812 812 813 814 815 816 818 818 818 819 820 820 821 821 821 821 821 821 822 821 822 822 823 824 825 826 827 829
742 742 742 743 745 746 747 748 750 752 753 752 753 754 756 758 760 762 764 766 769 772 774 776 778 779 782 785 787 788 789 789 790 791 792 793 794 795 797 797 798 799 799 799 799 798 799 801 802 802 802 802 804 806 808 809 809 809 810 811 812 814 815 817 817 818 819 820 820 821 821 821 822 822 822 822 822 822 822 822 824 825 826 828 829
740 740 741 741 742 743 744 745 747 749 751 752 752 754 756 756 758 761 763 764 766 769 772 774 777 779 782 783 785 787 788 788 789 790 790 792 794 794 796 796 797 798 797 797 797 797 799 801 803 803 803 803 805 806 807 807 807 808 809 809 810 812 814 815 816 817 818 819 820 821 822 822 823 823 823 823 822 822 822 822 824 825 826 828 830
738 738 739 739 740 741 741 742 744 746 750 753 753 755 755 756 757 759 761 763 764 767 770 772 774 779 783 784 785 787 787 787 788 789 790 791 793 793 794 795 796 796 796 796 797 797 798 800 803 805 805 805 805 805 805 806 806 807 807 807 808 810 812 814 816 817 818 819 820 822 822 823 823 824 824 824 824 824 824 824 825 826 827 829 831
738 738 738 737 738 738 738 740 742 744 747 750 751 752 753 754 756 758 760 763 765 767 769 771 773 779 785 787 786 786 786 786 787 788 789 790 791 792 793 794 794 794 794 794 795 796 797 798 800 803 803 803 803 803 803 804 805 805 806 807 808 811 813 815 816 817 818 820 821 822 823 823 824 825 825 825 825 825 826 826 827 828 829 831 832
738 737 737 736 736 737 737 739 740 742 745 747 749 750 751 753 755 757 760 764 766 767 768 769 773 779 784 785 786 786 785 785 786 787 788 789 789 790 791 792 792 793 792 791 792 795 796 797 799 800 800 800 800 800 801 802 803 804 806 806 808 811 813 814 816 817 818 820 821 822 823 824 825 826 826 827 827 827 828 829 830 830 832 833 835
738 737 736 736 735 736 737 738 738 739 742 745 747 748 749 751 754 757 760 763 765 766 767 768 772 778 782 785 787 787 785 784 785 786 787 788 788 789 790 790 791 791 790 790 791 793 795 796 797 797 797 797 798 798 799 801 802 804 806 807 809 810 811 813 815 817 819 820 822 823 824 825 826 827 827 828 828 829 830 831 832 833 834 836 837
740 738 737 736 736 736 737 737 737 737 739 742 744 744 746 749 752 756 758 760 762 764 767 771 774 777 781 786 789 788 785 783 784 785 785 786 787 787 788 788 789 789 789 789 789 791 793 794 795 796 796 795 795 796 798 800 801 803 805 807 810 811 812 812 814 816 818 820 822 823 825 826 827 828 828 829 829 830 831 832 834 835 836 837 838
742 740 740 739 738 738 737 737 737 736 738 741 743 743 745 749 751 753 756 759 761 763 766 770 773 775 779 783 786 786 783 782 782 783 784 784 785 785 786 787 788 788 788 788 788 789 791 792 793 794 795 795 794 795 797 800 802 803 805 807 810 812 813 814 815 817 819 820 822 824 825 827 828 828 829 830 830 831 832 833 835 836 837 838 839
743 742 742 741 741 740 739 738 737 736 736 739 743 745 746 749 750 752 754 758 761 763 766 768 769 772 775 779 782 782 781 781 781 782 783 783 783 784 785 787 787 787 787 788 787 788 790 791 792 793 795 795 795 796 798 801 803 804 805 807 810 812 814 815 816 817 819 821 823 825 826 827 828 829 830 830 831 832 833 834 835 837 838 838 839
745 744 744 744 744 744 743 742 739 737 736 738 742 745 746 747 749 751 754 758 760 762 764 765 767 771 774 777 779 779 779 780 780 781 782 782 783 784 785 786 787 786 786 788 789 789 791 792 793 794 795 796 797 798 800 802 804 806 807 808 810 813 814 815 817 818 819 821 823 825 826 827 828 829 830 831 832 832 833 834 836 837 838 839 840
747 747 746 747 747 747 746 745 743 741 740 740 743 746 746 746 747 751 754 758 761 762 763 765 768 772 774 775 776 777 778 779 779 781 782 782 783 784 784 786 787 787 786 787 789 790 792 793 795 796 797 798 799 801 802 804 806 808 809 810 811 813 815 816 817 819 820 822 824 826 827 828 829 830 831 832 833 834 835 836 837 838 839 839 840
749 749 748 749 749 749 748 747 746 745 744 744 745 748 748 748 749 752 755 759 761 763 766 768 771 773 774 775 776 777 778 779 779 781 781 782 783 783 784 786 787 788 787 787 788 790 792 794 797 799 799 800 801 803 805 806 808 810 810 811 812 814 815 817 818 819 821 823 825 826 828 828 829 830 832 833 834 835 836 837 838 838 839 840 841
751 751 750 751 751 750 750 750 749 749 749 749 749 750 752 753 754 756 758 760 763 766 769 771 773 775 775 775 776 777 778 779 780 781 782 782 783 783 785 786 787 788 789 789 790 792 794 796 798 799 800 801 803 805 806 807 809 810 811 812 813 814 816 817 818 820 822 823 825 827 828 829 830 831 833 834 835 836 837 838 839 839 840 841 842
752 752 752 753 752 752 752 753 753 753 754 754 754 755 755 757 759 761 763 764 767 769 772 773 775 776 777 777 777 778 779 780 780 781 782 782 783 785 786 788 789 789 791 792 793 795 796 797 798 799 800 802 803 805 806 807 808 809 810 812 813 815 816 818 819 821 823 824 825 827 828 829 831 832 834 835 836 837 838 839 839 840 841 842 842
753 754 754 754 755 755 755 755 756 756 757 758 759 760 760 761 764 766 768 769 770 772 773 774 776 777 778 778 778 779 779 780 780 782 783 784 785 787 788 789 790 791 792 793 794 796 797 798 799 800 801 802 803 805 806 807 808 809 810 811 813 815 817 818 820 821 823 824 825 827 828 830 831 832 834 835 836 837 838 838 839 840 841 842 843
754 754 755 755 756 756 757 757 758 758 760 761 762 763 764 765 767 768 769 770 772 773 774 775 777 778 778 779 779 780 780 780 781 783 784 786 787 789 790 791 792 792 793 794 795 796 797 798 799 800 800 801 803 804 805 806 808 809 810 811 813 815 817 819 820 822 823 824 826 827 829 830 832 833 834 834 835 836 837 838 840 840 841 842 842
755 755 756 756 756 757 758 759 759 760 761 763 764 765 766 767 768 769 770 771 773 774 775 777 778 779 779 780 780 781 781 782 783 785 786 788 789 790 791 792 793 793 794 795 795 796 797 798 799 800 801 802 803 804 805 807 808 809 810 812 813 815 817 819 821 822 824 825 826 828 830 831 832 833 834 834 835 836 837 838 839 840 840 841 842
756 757 757 757 757 757 758 759 760 761 762 763 764 765 766 767 769 771 772 773 774 775 777 778 779 780 781 781 782 782 783 784 785 786 788 789 790 791 792 793 794 794 795 795 796 797 798 798 799 800 801 802 803 805 806 807 808 809 811 812 814 816 818 819 821 822 824 825 827 828 830 831 832 832 833 834 835 836 836 838 839 839 840 842 842
758 759 759 759 760 760 760 760 761 762 763 763 764 766 767 768 770 772 773 775 776 777 779 780 781 782 782 783 784 784 785 786 787 788 789 790 791 792 793 794 794 795 795 796 796 797 798 798 799 800 801 802 804 805 806 807 809 810 812 813 815 816 818 819 821 822 823 825 827 828 829 830 831 832 833 834 835 836 836 837 838 839 841 842 842
761 761 761 762 763 763 762 762 762 764 765 765 766 767 768 770 772 773 775 777 778 779 781 782 782 783 784 784 785 786 786 788 789 790 791 791 792 792 793 793 794 795 795 796 797 797 798 799 800 801 802 804 805 806 807 808 809 811 812 814 815 817 818 819 821 822 824 825 827 828 829 830 831 832 833 833 834 836 837 837 838 839 840 841 842
762 761 761 762 763 764 764 763 764 766 767 768 769 769 770 772 773 775 777 778 779 780 782 783 784 785 785 786 787 787 788 789 790 790 791 792 792 792 792 793 794 795 796 797 798 798 799 801 802 803 803 804 805 807 808 809 810 811 812 814 815 817 818 819 821 822 824 825 826 827 828 829 830 831 832 833 834 835 836 838 838 839 840 841 841
761 762 763 763 764 765 765 765 767 768 768 769 770 770 771 773 774 775 777 779 780 781 783 784 784 785 786 787 788 788 789 789 790 790 791 792 793 793 793 794 794 795 796 797 798 799 800 802 803 804 805 805 807 808 808 809 810 811 813 814 816 817 818 819 821 822 824 825 826 827 828 829 830 831 832 833 834 835 836 838 839 840 840 841 841
762 763 764 764 765 766 766 767 768 768 769 770 770 771 772 773 774 776 778 779 781 782 784 785 785 786 787 788 788 788 789 789 790 791 791 792 793 794 794 795 795 796 797 797 798 800 801 802 803 805 806 807 808 809 809 810 810 811 813 814 816 817 818 819 821 822 824 825 827 827 828 829 830 831 832 833 834 835 836 838 839 839 840 841 841
764 764 765 765 766 766 767 768 768 768 769 770 770 771 772 773 775 777 778 779 781 783 785 786 787 787 787 788 788 789 789 789 790 791 792 793 794 794 794 795 796 796 797 798 799 800 802 803 804 805 806 808 809 809 810 811 811 811 813 814 815 817 818 819 821 822 824 826 827 827 828 830 831 832 833 834 835 836 836 837 838 839 839 840 840
764 765 765 766 767 767 768 769 769 769 769 769 770 771 772 774 775 777 778 780 782 783 785 787 787 788 788 789 789 789 790 790 791 792 792 793 794 795 795 796 797 797 798 799 800 801 802 803 805 806 807 808 809 810 810 811 811 811 813 814 815 817 818 819 821 822 824 826 827 827 828 830 831 832 833 834 835 835 836 836 837 838 838 839 839
765 766 766 767 768 769 769 769 770 770 771 771 772 772 773 774 775 776 777 780 782 783 785 787 788 788 789 789 789 790 790 790 791 792 792 794 795 795 796 797 798 799 799 800 802 803 803 804 806 807 808 809 810 810 810 811 811 812 813 814 816 817 818 820 821 822 824 826 827 828 829 830 831 832 833 834 834 835 836 836 836 837 837 838 839
766 767 768 769 769 770 770 771 772 772 773 773 774 774 774 774 775 776 777 779 781 783 784 786 787 789 789 790 790 789 789 789 790 792 793 794 795 795 796 797 799 800 800 802 803 804 804 805 806 808 809 810 810 811 812 812 812 812 813 815 816 817 818 820 821 822 824 825 827 828 829 830 830 832 833 834 834 835 835 836 836 836 837 838 839
766 767 768 770 770 771 772 773 773 774 773 774 775 776 776 776 776 777 778 779 780 782 784 785 787 788 789 789 790 790 789 789 790 791 793 794 795 795 796 798 799 800 801 803 804 804 805 806 807 808 809 811 812 813 813 813 813 813 814 815 816 817 818 820 821 822 823 825 826 827 828 829 830 831 833 834 834 835 835 836 836 836 837 838 839
766 767 768 769 771 772 773 773 774 774 774 774 776 777 777 777 778 779 780 780 780 781 783 784 785 787 788 789 790 790 790 790 791 791 793 795 795 796 797 799 800 801 802 804 805 805 806 807 808 809 810 811 812 813 813 814 814 815 815 816 817 817 818 820 821 822 823 825 825 826 827 828 829 831 833 834 834 835 835 835 836 836 837 838 838
768 768 768 769 771 772 773 774 775 775 775 776 777 778 778 779 780 781 781 782 782 782 783 784 785 786 787 788 789 790 791 792 792 792 794 796 796 797 799 800 801 802 803 805 806 806 806 807 808 810 811 812 812 813 814 814 815 816 817 817 818 819 819 821 821 822 823 824 825 826 827 828 829 831 832 833 834 834 834 834 835 836 837 838 838
768 768 769 770 771 773 774 775 776 776 776 778 779 780 780 781 781 782 782 783 784 784 784 784 785 786 787 788 789 790 791 792 793 794 795 796 797 799 800 801 803 804 804 805 806 807 807 808 809 811 812 812 813 814 815 815 816 817 817 818 819 820 820 821 822 822 823 825 826 827 828 828 829 830 832 832 833 834 834 834 835 836 837 838 838
769 769 770 771 771 772 774 775 776 776 778 779 780 781 781 782 782 782 783 784 784 785 785 785 786 786 787 788 789 791 792 793 794 795 795 797 798 800 801 802 803 804 805 806 807 808 809 810 810 811 812 813 813 814 815 815 816 817 817 818 819 820 821 822 822 823 824 825 826 827 828 829 829 831 832 832 833 833 834 835 836 836 837 838 838
770 770 771 771 772 773 775 776 776 777 779 780 780 781 782 782 782 783 784 784 785 786 786 787 787 787 788 789 790 792 793 794 795 795 796 797 799 800 802 802 803 804 805 806 807 809 810 811 811 811 812 813 813 814 814 815 816 817 818 819 819 820 821 822 823 823 825 825 826 827 828 829 829 830 831 832 832 833 834 836 836 837 837 837 837
Wind_Speed
19 20 20 19 20 21 21 20 19 18 17 17 17 16 16 17 17 17 18 17 17 17 16 17 19 18 17 17 17 17 18 18 17 18 18 17 16 15 13 15 16 14 13 13 13 11 10 9 9 9 8 8 7 6 6 5 5 6 4 4 4 5 7 7 5 5 5 5 6 7 6 3 6 8 6 6 2 2 2 6 8 9 9 8 7
20 20 20 19 19 20 21 21 20 19 18 17 17 17 17 17 17 16 17 17 17 18 17 17 18 19 18 18 18 18 19 19 17 18 19 18 16 14 13 14 16 15 14 14 13 11 10 10 10 10 9 9 9 7 6 5 4 4 4 5 4 4 4 5 4 3 4 6 6 7 6 3 7 9 7 6 4 2 4 6 7 9 7 4 4
21 21 20 19 19 20 20 20 20 19 19 18 17 17 16 17 16 16 17 17 18 18 18 17 18 19 19 19 19 19 20 21 19 18 19 19 17 15 14 15 17 17 15 14 13 12 11 11 10 10 10 9 9 8 6 5 3 3 3 4 3 2 0 1 2 2 2 6 6 8 8 7 10 12 10 9 9 7 8 7 7 7 6 3 3
17 21 22 20 19 20 20 20 20 20 19 19 18 18 17 16 17 17 17 17 18 19 19 18 18 18 17 18 19 19 20 22 20 18 17 17 16 16 16 16 16 17 15 15 14 13 13 12 11 11 10 9 9 8 6 4 4 4 3 4 4 3 2 1 3 2 1 3 5 8 9 8 9 9 8 7 6 5 6 7 7 6 5 3 3
12 16 21 22 20 20 21 20 20 21 20 19 19 19 18 16 17 18 18 16 16 18 19 19 19 18 17 17 18 19 19 19 19 18 16 16 17 17 17 15 15 15 15 16 14 14 14 13 11 11 11 10 9 8 5 4 4 3 3 4 4 5 4 3 3 3 3 4 5 6 6 7 7 7 7 6 4 3 5 6 6 5 4 3 4
12 15 18 21 21 21 21 21 21 21 21 20 20 19 19 17 16 17 18 16 15 16 18 18 18 18 18 17 17 18 18 17 17 18 17 17 18 18 17 16 15 15 15 16 15 14 13 12 11 11 11 10 9 8 7 6 6 4 3 5 6 6 4 3 3 4 3 4 4 3 5 7 6 5 7 8 7 7 8 8 5 4 3 3 4
13 17 23 21 21 21 21 21 21 21 21 21 20 19 19 19 19 18 18 18 17 16 17 18 18 18 18 18 17 17 18 17 17 18 18 17 16 16 16 16 16 15 15 15 15 14 13 12 12 11 11 11 9 8 8 8 6 5 4 4 5 6 4 2 3 4 3 3 3 3 5 6 5 5 6 7 7 8 9 9 6 4 4 3 2
17 21 27 22 18 20 21 20 20 21 21 21 21 20 19 20 21 20 19 19 19 17 17 18 19 18 18 19 18 18 18 18 18 18 18 18 16 15 16 17 16 15 15 14 13 13 12 12 12 10 10 11 10 9 9 8 5 5 5 5 5 5 5 3 3 3 3 3 3 3 3 4 4 6 8 7 8 8 6 6 5 3 3 2 1
21 24 26 23 19 18 19 19 19 19 20 21 21 21 20 19 20 20 20 20 20 19 18 18 19 19 19 19 19 19 18 19 20 19 19 19 18 16 18 19 17 15 14 13 12 12 12 11 9 9 10 11 10 10 10 8 5 5 5 4 4 6 6 5 3 3 2 2 2 3 3 3 4 8 9 8 8 7 4 4 3 1 2 2 2
24 21 22 23 22 19 19 18 18 16 17 19 20 20 20 19 19 20 20 20 20 20 20 19 18 18 19 19 19 19 18 18 19 20 20 19 18 18 17 16 16 14 13 13 13 12 10 9 8 9 12 12 11 9 9 8 6 7 7 6 7 7 6 5 4 3 3 2 1 2 3 3 3 5 7 6 6 5 4 5 5 3 1 1 1
23 22 23 25 22 20 20 19 18 16 16 16 18 20 21 20 19 19 20 20 19 19 20 20 19 19 19 19 19 19 19 19 21 22 22 20 18 17 14 11 12 12 10 11 13 11 9 9 10 11 12 13 9 9 10 9 8 8 9 8 9 9 7 5 3 2 2 1 1 2 2 3 3 3 4 4 5 5 4 5 5 4 2 2 3
18 20 24 24 19 17 17 17 18 19 18 16 16 18 21 21 21 18 17 19 20 20 20 20 18 17 19 19 19 19 18 17 19 22 23 22 20 17 12 11 11 11 10 10 11 10 8 9 11 12 11 11 10 10 10 9 8 8 7 7 8 9 8 6 4 2 2 2 1 2 3 4 4 4 4 5 7 7 5 5 5 5 6 6 5
15 17 19 20 19 17 15 15 18 22 21 17 15 15 18 21 22 19 16 16 17 19 21 21 19 17 18 19 20 21 19 16 16 19 22 23 23 20 16 14 14 14 13 12 11 10 10 10 11 12 10 10 12 11 9 8 9 8 6 5 5 5 3 2 1 1 1 0 2 5 4 3 3 3 3 4 6 4 4 6 8 8 10 11 10
19 20 18 17 19 19 17 17 18 21 23 20 16 14 16 18 20 20 17 16 15 16 18 20 20 19 18 18 18 19 19 17 15 16 19 21 23 23 19 16 14 14 15 14 13 13 13 12 11 11 11 11 12 12 11 10 10 8 6 6 4 3 3 3 4 4 4 3 4 5 3 1 2 1 2 5 5 4 5 7 9 12 14 14 12
21 22 21 20 20 21 21 20 19 20 24 24 21 18 15 16 18 18 16 16 17 18 17 18 19 20 20 19 18 18 19 19 18 16 17 18 20 21 21 18 15 14 14 14 14 14 13 12 11 12 13 12 13 14 13 11 10 9 8 8 7 6 6 5 4 4 4 4 3 3 3 3 3 3 5 8 7 6 7 10 12 15 17 16 14
22 21 22 23 24 24 25 25 23 22 25 26 25 22 20 18 19 20 17 15 15 17 19 20 20 20 21 21 20 20 19 19 20 19 18 18 18 20 21 19 17 16 15 15 15 15 14 14 13 11 12 12 13 14 13 10 10 10 9 9 8 8 7 5 4 3 4 4 4 5 6 5 4 4 6 9 9 8 10 12 13 15 16 16 14
24 23 22 23 25 26 27 28 26 23 25 28 29 28 26 23 23 24 24 21 17 16 18 20 21 21 21 22 22 22 21 19 19 20 20 20 20 21 21 19 17 17 16 16 16 15 15 16 13 10 11 12 12 12 11 10 10 10 10 10 10 9 8 7 8 7 8 9 9 9 10 8 7 7 6 8 8 8 10 11 11 12 14 14 12
22 23 24 24 25 25 26 28 26 22 23 28 31 30 30 28 26 27 28 28 26 21 17 18 20 21 21 22 22 23 21 20 20 21 22 23 23 23 21 18 16 16 16 16 16 14 14 15 12 11 11 11 10 11 11 10 9 10 12 13 12 11 10 12 14 14 14 14 14 14 14 13 12 10 8 9 9 9 10 11 11 12 14 14 14
18 21 24 26 25 25 25 27 27 23 23 27 30 31 30 28 27 27 27 28 28 25 21 18 19 21 23 23 23 23 22 21 19 20 22 24 25 22 19 16 16 15 16 16 16 15 14 12 12 12 11 10 11 12 11 10 10 11 13 14 13 12 13 14 16 16 14 13 14 14 14 13 14 12 11 11 12 11 12 12 11 12 14 15 16
13 15 20 22 22 23 24 25 26 26 24 23 26 28 26 25 26 26 27 27 27 26 24 19 17 17 18 19 19 17 18 20 19 18 20 23 24 22 18 16 14 13 14 14 14 12 9 6 8 11 12 11 10 11 10 10 10 11 13 15 16 16 16 16 16 15 13 14 14 14 14 14 14 14 13 13 14 15 16 16 13 13 15 16 16
9 11 14 15 16 19 22 24 24 25 24 19 18 22 24 24 25 27 28 27 25 23 22 19 16 13 10 10 11 9 9 13 17 18 20 22 23 23 20 16 12 10 11 10 9 9 8 7 8 11 13 10 8 9 10 10 10 10 12 15 17 20 20 18 17 16 16 17 17 15 14 15 15 16 15 15 16 16 18 19 19 18 18 18 17
7 9 10 11 12 16 19 21 21 23 23 18 17 22 25 23 23 25 26 23 19 18 17 15 13 11 11 12 12 9 8 10 13 16 20 21 22 22 19 15 11 9 9 8 6 6 9 12 14 14 12 9 7 7 9 11 11 10 11 15 18 20 19 18 17 18 18 18 16 15 14 15 16 16 17 18 18 17 17 17 17 18 19 18 17
5 6 7 9 11 13 15 17 19 21 20 17 18 24 26 22 21 23 23 20 15 14 15 12 7 7 10 12 11 10 11 11 11 14 16 17 18 19 18 16 12 8 8 10 9 8 12 17 17 15 11 8 7 7 8 11 11 10 13 17 18 18 18 18 18 19 19 17 16 15 15 15 16 16 17 18 19 19 19 18 17 18 18 18 17
6 5 4 3 5 8 10 11 14 18 21 20 21 26 27 24 21 20 20 18 13 11 15 15 11 8 8 9 8 8 9 10 10 10 10 12 13 13 14 15 12 8 8 11 13 15 18 19 16 13 10 8 7 8 9 10 10 12 15 15 15 18 20 20 20 20 19 18 16 16 15 14 15 16 15 16 17 17 18 18 18 18 19 18 18
7 9 9 7 3 1 5 7 9 14 20 22 22 26 28 23 20 18 18 17 14 12 14 15 13 10 10 9 8 6 6 7 7 7 8 10 12 11 10 10 10 9 9 10 12 15 16 15 11 9 8 9 10 11 12 12 14 16 16 15 17 19 20 20 21 21 20 17 16 16 16 15 16 15 15 15 15 15 17 17 17 17 17 18 17
7 9 11 10 9 8 8 10 10 12 19 22 23 25 25 21 19 19 18 15 12 12 13 14 13 13 14 13 12 8 6 6 7 7 8 10 10 10 8 6 7 8 9 10 11 13 13 11 9 9 9 11 13 15 17 18 19 19 19 19 19 18 18 20 22 21 18 16 16 16 16 15 14 14 14 14 13 12 14 15 16 14 14 15 16
9 10 11 11 12 12 11 12 15 17 20 22 21 19 18 18 18 17 15 12 12 13 13 14 15 17 17 15 12 9 6 6 5 6 6 6 6 6 5 3 4 7 10 11 11 12 12 12 12 13 14 15 18 21 22 22 21 21 20 20 19 19 20 21 19 16 16 17 18 17 16 15 15 15 14 13 11 11 12 13 13 11 10 11 12
11 11 12 12 12 12 13 15 20 24 24 22 19 14 14 17 18 16 14 15 16 14 12 13 15 17 16 14 11 8 6 5 6 7 6 5 4 5 5 4 5 7 10 11 12 13 15 16 18 20 22 23 24 24 24 22 21 20 21 21 22 21 18 15 13 14 16 18 17 16 16 16 15 15 14 12 11 12 13 13 13 10 8 9 10
12 11 12 11 12 13 14 17 20 25 27 26 24 20 19 22 23 21 19 18 16 14 12 12 12 14 14 12 10 8 6 6 8 8 8 7 6 7 7 8 10 11 12 15 17 19 20 21 22 23 23 24 23 21 20 20 19 20 21 20 18 15 13 13 15 17 17 16 15 14 14 15 16 16 14 13 11 11 12 13 11 9 9 12 13
11 11 12 12 11 12 15 17 19 23 26 27 28 25 23 24 25 24 22 20 16 14 12 11 10 10 12 12 10 8 7 7 8 8 7 7 7 8 9 11 14 16 18 21 23 24 24 22 21 21 21 20 19 16 16 17 17 17 16 15 13 13 14 16 16 16 16 15 13 13 13 15 17 15 14 13 13 12 12 12 11 10 12 14 12
10 11 12 13 12 12 13 15 17 20 23 25 27 27 27 27 25 23 20 19 17 15 13 12 10 10 12 13 11 9 8 9 10 9 8 8 8 9 11 15 19 22 24 24 22 22 20 18 17 18 18 16 15 15 15 15 16 15 14 14 14 15 16 15 13 13 15 14 14 14 15 16 17 15 13 13 13 12 12 11 10 10 10 9 7
11 11 12 14 15 15 14 15 16 17 19 22 24 25 27 27 26 24 20 18 17 15 14 13 12 11 11 11 11 12 13 13 13 12 11 11 12 14 18 22 25 25 23 20 18 17 17 15 14 14 14 13 14 15 16 15 16 16 15 15 15 16 16 15 13 13 15 15 15 16 16 16 15 14 13 12 11 11 10 9 8 6 5 4 5
12 12 13 14 15 15 15 15 15 15 16 18 20 21 23 25 25 25 23 21 19 17 16 14 13 13 12 11 12 15 16 16 16 15 15 16 19 23 25 25 24 21 17 15 15 15 14 13 13 12 12 13 15 17 16 16 17 17 15 15 16 19 18 14 12 14 15 16 16 16 15 15 15 13 12 11 11 10 9 9 7 5 4 4 4
13 14 15 14 14 14 15 14 14 15 16 18 19 20 21 22 22 21 20 20 20 19 19 17 15 14 15 15 15 15 16 18 18 18 18 21 24 26 25 21 18 15 13 13 15 14 13 13 13 13 13 13 15 18 18 17 17 16 14 15 19 21 18 13 12 15 16 15 16 16 15 15 14 13 12 11 10 9 9 9 8 7 9 9 6
13 14 15 15 15 15 14 13 13 15 17 19 21 21 20 18 17 16 16 15 16 18 18 17 16 16 16 16 16 15 16 17 18 19 21 23 25 23 19 15 13 12 11 12 12 12 13 13 13 14 14 14 16 18 17 15 15 15 15 17 21 22 18 14 13 14 14 15 17 15 14 14 12 11 12 12 11 11 10 9 9 8 9 8 6
14 12 12 13 14 14 13 12 12 13 15 16 17 18 18 16 15 15 15 14 15 16 17 17 16 16 16 16 16 17 17 18 19 21 22 23 22 19 14 12 12 11 10 10 10 10 12 12 11 13 15 17 16 15 13 13 14 16 17 18 20 20 18 15 14 15 15 16 17 15 14 13 11 10 10 9 8 7 7 7 8 8 8 8 6
14 13 14 14 12 12 13 13 13 14 15 15 14 15 15 15 15 15 15 15 15 16 16 17 16 15 15 15 16 17 19 19 21 22 22 21 20 14 9 10 13 12 10 9 9 8 9 10 10 12 16 16 14 13 12 13 15 15 15 16 18 18 16 14 14 15 15 15 15 15 13 12 9 8 8 6 4 3 4 5 7 8 8 7 3
14 15 18 18 14 13 14 16 15 15 15 16 16 16 16 16 17 17 16 15 16 15 14 13 13 13 14 15 16 18 20 20 19 19 19 18 16 9 4 8 14 13 10 8 9 9 10 10 10 10 12 13 13 12 11 12 13 13 13 14 15 15 15 14 14 14 14 14 13 13 11 10 7 5 4 6 6 4 3 4 6 6 3 1 1
14 15 17 17 15 14 14 14 13 14 15 16 16 17 17 17 17 16 15 14 14 14 13 12 12 12 13 14 15 17 17 16 16 16 14 12 9 5 3 7 12 13 11 11 11 11 11 9 8 8 9 9 9 9 9 10 11 11 12 14 14 14 15 14 14 14 13 12 11 10 8 8 8 4 3 5 7 6 3 4 5 4 3 3 1
11 10 12 13 12 12 12 12 13 14 15 16 16 15 15 15 14 14 14 14 14 14 13 12 12 12 11 12 12 10 8 9 11 12 11 9 5 3 6 12 14 12 10 9 10 10 11 9 7 6 6 6 6 6 7 8 10 11 12 12 12 12 14 14 13 13 12 10 9 9 8 8 8 5 4 6 7 6 5 3 3 3 4 5 4
9 8 8 9 10 11 12 12 13 14 15 15 15 15 14 14 15 14 15 15 15 15 14 12 12 11 10 10 9 4 2 4 7 10 11 10 7 7 10 11 10 8 8 11 13 13 12 10 8 6 5 5 5 4 4 5 7 8 9 9 9 9 12 12 12 12 11 10 9 8 8 8 7 6 7 8 6 5 6 5 2 2 5 7 5
9 8 7 6 7 10 12 11 10 13 15 14 15 16 15 14 15 15 15 15 15 14 13 11 10 11 9 8 6 2 2 3 7 10 11 10 8 9 10 9 7 8 10 14 16 14 12 11 9 7 7 7 5 4 5 6 6 8 8 7 7 8 11 13 12 11 11 11 9 9 9 8 7 6 6 5 3 2 3 4 0 3 4 4 6
7 8 9 10 9 9 10 9 9 10 11 10 11 14 15 15 14 14 16 16 15 14 13 10 9 10 8 6 4 0 1 3 8 10 9 9 9 9 8 8 9 10 11 12 13 12 11 11 11 11 10 8 6 5 4 5 6 9 9 7 7 9 11 12 12 11 11 10 10 10 9 8 8 7 5 3 1 2 2 1 4 4 2 1 2
4 6 9 11 9 6 7 9 11 12 13 10 7 7 9 12 14 15 16 17 15 14 14 13 10 7 6 5 2 4 4 5 10 10 9 8 6 6 8 8 7 9 10 10 9 9 9 11 12 12 9 8 9 10 8 6 6 9 9 8 8 10 10 10 10 11 11 11 11 9 7 6 6 7 5 2 0 2 3 2 2 1 2 2 1
6 6 6 7 6 5 7 10 10 9 9 8 4 2 2 3 7 10 14 17 18 16 15 15 12 8 5 4 2 6 4 6 11 9 8 8 6 7 10 10 7 7 9 9 7 7 9 11 11 11 10 9 9 9 9 10 10 10 10 9 9 10 10 10 10 11 12 11 9 7 7 6 6 7 6 4 2 2 3 5 5 4 3 3 2
5 6 6 6 4 4 6 8 6 4 5 6 5 2 2 2 4 5 6 9 14 16 16 15 14 11 7 5 3 5 4 3 10 9 5 4 5 9 11 10 7 8 9 8 6 6 8 10 10 10 10 10 9 8 8 9 10 10 10 11 11 11 10 10 10 11 11 9 6 6 7 8 7 7 6 5 4 4 3 4 5 4 4 4 4
4 4 5 6 5 4 5 5 3 3 4 5 6 4 1 2 5 5 5 6 6 9 12 12 13 13 11 9 6 2 2 1 4 8 6 3 4 9 11 9 7 8 8 7 6 6 8 10 11 11 11 11 10 10 10 8 6 6 7 8 10 12 12 11 11 10 10 7 5 6 7 7 8 7 4 2 4 6 5 4 4 4 3 3 2
3 2 3 6 6 5 4 4 2 2 3 5 5 4 2 3 3 2 2 3 3 1 3 5 6 8 10 8 6 5 3 1 1 6 7 4 4 8 10 8 7 8 8 6 6 8 10 12 12 11 11 11 10 9 9 8 5 3 4 5 7 9 11 12 12 12 11 8 6 5 4 4 6 7 4 3 4 5 4 5 6 5 3 2 1
3 2 4 6 5 5 6 4 3 4 5 4 2 2 2 1 1 2 3 3 2 2 2 2 3 4 6 6 4 3 4 4 2 4 7 7 7 8 8 6 6 7 8 7 7 9 11 12 12 11 11 11 11 9 8 6 4 4 5 7 7 7 8 8 8 9 10 9 6 4 2 3 6 7 4 3 4 5 5 6 6 5 3 1 1
2 2 4 4 4 5 7 5 3 4 6 4 3 3 2 1 2 3 3 4 5 3 2 0 1 1 3 6 5 3 2 2 2 4 7 9 8 7 6 5 6 7 9 9 9 9 9 11 12 12 12 12 11 10 7 5 4 5 7 7 7 6 6 5 4 5 6 6 6 5 6 6 8 8 4 2 5 7 7 6 4 2 1 1 2
3 3 4 4 5 6 6 3 3 5 5 2 2 4 3 2 2 4 3 2 4 4 1 2 2 2 3 5 6 4 2 0 1 3 7 9 8 7 6 6 6 9 11 11 10 10 10 11 11 12 12 13 13 11 7 5 5 7 9 8 6 6 6 5 5 5 5 5 5 5 5 6 7 7 5 5 9 9 5 1 2 2 0 2 2
Wind_Direction
199 194 197 196 193 191 192 195 197 201 203 199 200 203 202 200 200 195 193 195 192 188 191 193 191 193 197 202 201 196 197 201 201 201 205 209 212 216 219 213 213 220 227 233 242 252 248 238 242 247 251 258 259 262 265 257 236 220 224 232 214 217 221 213 230 271 294 317 326 331 333 310 302 308 304 304 318 115 305 309 320 326 319 307 302
201 199 200 199 196 194 192 193 195 199 202 201 203 205 204 203 203 200 196 196 195 192 196 200 197 195 198 204 205 201 199 201 205 205 203 208 215 219 220 214 211 216 226 234 240 247 249 243 241 244 248 247 246 252 255 255 247 216 225 248 234 217 214 214 229 245 289 319 328 325 320 317 327 333 332 329 359 20 317 326 343 347 351 339 318
203 199 202 203 200 198 197 195 194 199 201 202 206 207 205 205 206 208 205 200 197 198 199 202 204 200 200 204 207 206 202 199 206 211 204 203 210 218 223 220 216 217 223 232 236 238 243 243 241 241 243 240 237 242 244 248 264 249 248 275 285 288 275 227 250 243 297 315 319 323 327 344 358 3 360 354 9 3 338 357 6 350 360 6 326
212 204 202 205 205 200 201 201 198 200 202 202 207 210 210 208 206 213 218 207 198 200 201 204 208 209 207 206 206 208 206 198 202 212 209 202 207 219 226 224 219 217 222 229 233 234 237 241 241 241 245 244 237 239 243 252 272 276 280 297 308 310 307 292 287 286 310 305 307 324 340 357 360 356 348 349 20 27 3 23 31 16 32 55 22
233 230 212 205 209 206 203 206 203 203 205 205 206 209 212 211 206 211 223 220 205 200 200 204 209 211 212 214 211 211 211 202 198 207 213 210 211 217 225 229 226 221 224 230 232 233 236 240 242 240 242 240 234 234 240 246 255 270 287 283 289 297 287 281 289 276 255 271 293 323 1 20 360 332 328 336 348 4 357 7 30 50 67 51 34
233 262 243 215 209 210 207 208 208 206 207 209 209 208 210 213 210 209 218 223 217 207 201 203 209 212 214 219 218 214 215 209 201 205 214 216 215 216 219 226 230 228 229 232 232 233 236 241 244 242 240 240 237 235 229 225 235 251 268 270 275 286 282 287 302 288 275 283 295 331 25 32 15 352 355 352 349 359 354 344 4 54 65 43 52
222 263 261 234 213 214 211 209 212 210 209 211 213 211 210 212 211 209 213 219 219 215 209 208 212 214 215 219 222 219 217 214 210 210 216 222 221 218 218 223 228 228 230 233 234 234 237 241 244 244 243 240 234 226 223 229 244 258 270 280 286 285 277 295 318 312 321 324 325 11 36 42 39 25 12 358 3 17 6 353 6 38 45 59 113
217 244 250 238 222 222 218 214 214 213 213 214 215 217 216 213 211 208 209 216 220 218 215 213 213 215 217 218 222 223 219 217 219 218 219 224 224 221 222 225 226 226 227 229 230 230 235 240 246 253 253 246 237 234 237 240 249 263 269 280 294 290 274 274 294 297 311 330 339 359 27 58 46 17 8 8 16 21 9 0 11 35 31 15 205
212 230 239 234 228 224 221 223 224 217 216 216 216 220 222 220 217 211 208 213 218 220 220 217 213 215 218 218 219 224 222 218 220 221 220 222 223 223 224 224 222 222 224 226 226 229 234 238 240 236 234 236 236 242 249 244 235 249 260 269 289 285 270 261 265 269 275 296 327 345 20 69 41 7 10 22 22 18 12 2 357 5 14 352 238
208 221 234 235 229 222 218 224 230 226 221 221 221 223 225 226 224 218 214 213 213 217 222 221 217 218 223 221 217 221 225 222 219 218 219 220 221 225 227 224 218 216 223 228 228 232 234 233 231 221 223 232 228 223 239 246 243 251 258 260 268 270 264 254 254 256 249 247 358 7 28 58 35 5 17 25 13 10 15 4 360 358 347 4 148
203 208 221 228 225 221 220 221 225 227 228 230 228 222 223 230 233 227 220 217 216 216 221 226 223 220 223 225 224 224 225 225 220 216 218 219 221 226 229 224 216 216 226 229 224 227 231 226 231 234 238 245 231 206 223 242 247 255 261 261 260 261 257 245 241 257 254 248 353 359 16 41 36 16 24 19 1 358 354 352 5 21 37 91 94
204 205 215 219 216 215 220 223 223 223 228 237 235 223 219 227 238 238 227 220 220 215 216 226 228 222 222 225 228 230 229 233 231 219 215 216 217 220 226 229 225 217 220 226 223 228 227 218 229 240 240 240 230 214 221 235 238 243 249 253 257 260 259 254 249 248 249 269 315 42 59 67 66 47 33 19 4 355 359 24 54 72 81 92 100
225 225 223 220 219 217 216 223 227 226 227 235 237 228 221 223 234 242 236 227 222 214 215 225 231 232 228 222 226 233 235 245 247 226 211 211 214 217 223 229 230 226 228 235 231 229 229 222 227 234 228 222 222 219 218 223 228 232 235 243 258 263 259 264 257 219 193 114 107 103 97 97 95 73 46 33 19 18 55 75 84 95 99 96 98
227 229 225 219 222 222 218 222 229 230 230 231 230 226 223 222 227 236 240 236 228 221 218 222 227 234 236 230 230 233 231 235 241 225 212 213 217 221 223 224 227 231 235 237 233 233 236 228 221 225 224 217 214 213 214 218 222 220 216 216 216 203 176 133 108 112 116 120 125 117 110 133 134 133 115 87 68 70 98 105 105 108 108 101 95
225 225 223 219 220 219 216 219 224 228 229 228 227 223 219 218 220 226 237 239 235 229 223 222 225 230 236 239 237 234 230 229 231 225 218 218 220 221 221 221 227 235 237 235 232 234 236 226 218 223 223 213 209 214 217 219 222 218 209 205 194 178 169 149 126 131 138 134 124 112 105 111 116 128 133 119 102 92 103 115 121 117 108 99 90
224 222 222 220 219 217 217 216 215 219 222 222 224 224 220 217 214 216 225 234 238 235 226 223 226 228 232 238 239 239 239 233 228 226 223 222 221 220 219 221 228 235 239 238 236 236 233 223 212 211 213 209 213 220 218 216 223 217 199 191 182 169 162 147 132 152 154 122 102 102 103 103 104 113 128 125 114 112 116 117 119 119 111 103 93
227 226 224 220 218 217 216 215 212 212 216 217 217 220 221 220 215 213 217 223 230 235 230 224 224 227 230 232 233 238 242 239 232 229 227 226 223 219 219 223 229 235 238 241 242 237 229 220 211 209 222 223 219 217 213 210 217 206 183 174 168 155 144 129 116 112 108 99 94 93 88 83 84 93 113 121 119 132 139 129 126 128 121 111 100
231 230 229 226 223 220 218 216 213 212 215 216 214 214 217 220 219 216 216 219 221 226 234 233 227 226 229 232 232 233 238 241 239 233 231 229 223 219 220 224 230 236 238 240 241 235 228 228 222 215 221 219 204 200 204 207 206 188 171 167 164 152 141 132 120 108 99 92 87 82 76 72 75 85 104 115 113 118 126 126 131 135 128 121 115
237 235 235 234 231 229 226 223 221 220 220 218 215 214 212 213 217 217 216 218 218 219 227 237 234 227 226 230 232 233 236 240 239 234 230 226 220 216 218 223 230 237 237 233 230 228 228 231 224 209 203 197 188 191 199 204 206 194 176 166 162 157 150 139 125 112 103 97 91 86 80 75 75 83 96 103 100 99 105 115 131 139 132 127 123
247 242 240 237 234 232 231 229 226 224 223 221 217 213 209 208 211 214 214 216 216 216 219 229 239 241 234 229 233 239 239 236 235 230 226 223 219 216 218 224 230 237 236 231 229 225 218 221 222 206 193 189 193 200 202 201 204 198 179 165 160 159 154 141 129 124 122 118 107 97 94 89 81 82 88 90 89 90 94 100 106 116 118 113 108
257 246 240 236 235 232 229 228 226 222 221 219 211 205 205 206 208 211 212 212 213 215 217 219 231 252 268 256 247 254 249 237 231 224 216 215 218 219 222 228 237 243 239 234 235 225 204 201 212 199 188 194 211 213 204 196 195 194 185 176 170 161 150 138 132 131 126 119 112 102 99 95 86 82 82 81 80 84 90 93 94 96 100 100 101
272 255 245 236 234 231 228 228 227 219 214 208 201 202 205 207 210 211 211 210 209 206 206 209 220 243 269 264 247 238 236 231 223 216 213 213 216 221 225 229 235 242 232 219 225 228 206 200 203 198 194 204 215 210 199 192 192 194 186 177 165 152 144 140 136 130 120 115 113 107 103 99 92 87 85 82 80 81 84 88 93 97 98 99 102
315 283 263 243 232 228 227 230 231 226 218 207 203 207 208 208 211 210 208 210 209 196 192 196 207 232 246 245 231 212 210 212 209 209 214 218 222 228 232 229 226 226 210 195 199 209 200 195 194 191 190 198 204 200 192 188 188 183 174 168 159 151 148 145 137 127 119 117 116 111 106 102 98 96 93 89 86 83 82 84 90 94 95 94 93
16 1 345 292 239 229 230 233 232 224 213 201 200 207 208 209 212 211 208 210 202 177 176 187 195 196 198 208 209 190 185 195 205 214 223 228 230 236 238 232 225 218 203 194 192 190 186 182 179 178 184 190 185 175 173 176 174 165 161 162 160 154 148 139 131 125 121 120 119 114 109 107 106 104 101 98 95 91 88 89 89 89 90 88 85
44 40 37 38 47 167 203 205 212 210 197 187 193 205 206 204 205 207 208 206 193 172 167 175 187 187 176 187 213 206 175 190 218 236 245 240 233 233 238 236 229 223 215 202 188 178 171 167 165 170 176 169 157 152 154 159 159 153 149 150 151 148 141 134 131 128 124 122 120 114 112 113 112 107 102 102 103 98 96 97 94 93 95 93 89
60 56 52 52 64 84 121 146 161 178 180 182 197 208 206 199 195 197 200 195 178 166 158 152 158 169 174 185 201 198 180 199 230 246 248 241 234 232 235 238 228 213 194 179 168 159 156 159 162 160 156 151 147 143 141 144 147 145 144 146 146 142 136 133 131 130 129 128 123 120 120 121 117 111 107 107 104 103 107 106 100 98 101 96 91
66 66 62 60 66 73 84 105 118 128 144 163 182 196 199 194 188 184 181 163 135 128 138 145 151 160 168 173 176 177 182 198 220 237 238 236 236 229 216 201 185 165 151 149 151 149 151 156 155 149 145 140 136 134 135 139 140 139 138 139 137 132 131 131 130 132 134 131 127 126 128 126 122 118 112 104 95 99 113 116 108 105 111 108 103
70 67 67 65 67 69 70 80 93 100 110 125 136 138 144 153 154 148 140 135 129 130 150 170 171 166 168 169 165 167 185 205 214 215 199 177 173 174 163 158 169 165 156 153 151 149 147 143 136 134 133 129 126 127 129 131 131 131 132 132 129 127 129 129 126 127 128 127 128 133 134 131 126 117 107 96 88 91 104 111 107 104 114 113 103
76 73 73 71 71 72 71 72 80 87 93 100 103 101 104 113 117 115 113 121 130 138 152 170 173 167 169 172 170 171 185 204 207 198 179 162 158 159 162 175 183 178 168 157 145 134 127 123 123 125 125 122 121 121 122 123 125 129 132 132 131 133 136 132 126 124 124 125 131 140 140 130 120 111 103 98 95 94 102 107 101 97 101 94 83
74 75 75 75 76 77 74 74 77 82 87 91 92 90 87 91 98 102 106 114 123 131 142 157 169 172 171 170 170 177 184 181 175 171 167 164 161 161 167 174 170 156 144 138 132 125 120 120 123 124 121 120 121 122 124 127 131 135 137 136 137 139 134 127 124 126 129 130 130 134 131 120 111 107 104 104 104 103 103 100 90 88 96 93 88
75 74 72 74 77 77 77 80 82 83 85 88 91 89 85 84 87 93 101 110 118 127 140 153 164 175 173 164 158 160 160 153 148 148 151 151 153 156 155 153 147 137 128 123 122 122 123 125 127 126 125 128 132 135 138 142 145 148 148 145 146 143 134 128 131 138 140 136 128 123 120 114 112 112 111 109 108 104 99 96 92 92 96 94 99
83 82 81 82 82 81 82 86 89 87 86 86 87 88 86 83 82 85 93 104 115 124 135 144 151 160 163 158 154 149 143 140 136 131 127 128 135 141 140 137 134 129 124 122 123 126 129 130 132 135 140 143 147 150 154 155 153 152 152 156 160 152 138 136 149 153 144 133 123 120 120 118 118 120 119 118 119 117 112 112 114 111 114 132 145
95 95 96 96 94 94 95 95 95 94 93 92 91 91 91 91 89 88 91 96 101 107 113 120 129 136 138 139 141 139 135 130 126 122 123 127 134 138 137 136 134 132 130 128 129 133 137 139 141 149 157 161 164 163 159 152 151 153 156 158 156 148 140 143 155 149 136 129 125 124 126 128 127 126 128 130 134 136 133 133 137 139 129 135 164
108 108 107 104 103 106 110 110 107 105 105 106 107 104 102 102 100 97 95 94 94 95 99 105 112 120 123 125 128 129 129 127 124 125 130 136 141 143 142 140 141 141 139 137 137 141 147 148 153 164 169 161 154 150 147 149 154 158 155 146 144 144 145 146 145 138 132 131 132 130 131 134 134 136 141 147 154 160 160 155 146 116 79 60 29
109 112 111 109 109 111 113 114 115 117 119 119 117 115 111 107 103 101 101 99 95 95 98 104 110 113 115 117 120 124 129 130 128 131 138 145 148 148 145 143 144 144 142 143 144 147 151 155 165 173 163 141 131 137 149 158 157 148 142 141 143 145 145 143 143 143 140 136 135 135 136 140 147 153 155 160 169 173 164 146 127 98 73 61 39
85 84 87 96 104 108 109 109 109 113 120 122 119 115 112 109 107 107 105 102 101 102 106 111 113 113 113 115 118 123 130 133 134 137 144 150 153 151 146 143 143 146 152 160 164 166 165 166 167 160 145 135 135 145 156 155 143 135 137 143 145 145 147 150 152 150 143 137 138 141 143 150 166 175 166 162 171 166 144 124 116 100 79 71 54
81 76 75 81 88 94 100 103 101 98 98 100 100 101 101 102 105 107 105 105 107 108 111 115 116 115 116 117 119 125 131 136 141 144 149 154 156 153 146 146 150 155 168 175 168 154 145 140 134 129 130 135 145 151 149 143 138 135 139 145 149 150 152 155 153 147 141 139 143 151 156 161 174 177 162 151 148 128 104 106 117 108 86 68 36
110 106 100 100 102 105 108 110 109 106 100 97 97 100 100 101 102 104 106 110 113 114 117 118 117 120 125 123 123 126 130 135 143 148 153 161 167 170 178 169 163 161 157 146 132 116 109 112 117 124 131 141 149 150 145 141 143 145 146 151 158 160 159 159 157 149 142 143 154 167 171 164 159 164 159 147 141 134 98 87 106 115 105 65 283
129 131 128 128 128 129 128 126 122 117 113 110 108 107 108 110 111 113 115 116 116 118 122 122 123 130 134 132 132 135 136 138 148 157 164 173 186 207 206 155 143 132 116 110 111 109 109 113 118 121 129 137 139 139 142 146 151 157 160 160 161 162 159 160 161 155 150 153 165 175 170 152 142 142 134 128 133 139 124 72 70 71 36 356 358
116 132 142 141 135 130 130 131 128 123 121 122 122 119 118 121 121 120 119 117 113 114 117 121 130 137 139 142 150 153 147 146 156 163 163 160 152 122 105 109 112 116 123 134 135 127 119 118 116 113 116 123 126 133 150 162 161 158 158 163 169 167 159 155 156 157 160 165 168 166 157 150 150 149 131 122 121 120 118 103 63 40 357 316 267
98 108 124 131 127 120 117 118 120 119 115 115 117 117 115 116 117 116 115 112 111 112 114 122 137 147 153 160 167 160 93 117 135 132 129 132 127 108 106 111 117 124 129 132 134 131 122 117 115 110 106 109 113 118 131 151 160 158 157 165 172 165 156 155 157 159 161 166 170 163 149 146 152 145 126 120 117 112 115 122 113 358 340 334 344
114 113 114 109 99 102 103 101 107 117 119 119 121 121 117 114 113 114 114 112 110 112 115 126 148 161 167 171 168 136 55 91 111 109 112 117 111 99 99 103 106 103 98 101 106 109 110 113 117 117 111 105 105 118 126 131 140 147 155 172 177 161 155 159 163 161 161 164 166 156 144 146 159 153 127 120 142 155 130 125 147 295 298 332 13
138 123 111 98 86 89 98 92 88 100 107 108 112 118 121 122 122 121 118 114 112 114 118 128 154 173 183 185 178 199 359 109 122 121 116 105 96 100 105 93 81 86 93 94 94 98 103 108 108 108 107 95 75 80 120 146 150 144 144 155 162 152 150 154 155 156 158 159 153 148 149 157 164 161 154 155 157 109 93 272 273 264 231 241 350
118 101 100 102 102 104 106 94 83 83 86 84 84 102 122 137 143 139 130 125 122 122 125 132 148 174 192 192 213 305 287 173 149 142 135 126 122 135 138 122 94 87 95 98 99 103 108 107 104 105 106 84 56 55 66 84 114 130 135 138 138 138 143 151 154 156 157 151 142 143 152 154 143 142 153 175 163 50 32 348 291 218 131 100 61
112 102 93 102 110 110 99 90 86 93 102 105 94 36 40 127 141 138 135 138 141 138 133 136 145 161 182 193 253 303 287 165 144 134 135 145 143 126 120 116 103 96 102 105 106 108 107 106 106 106 101 83 64 58 59 61 74 97 118 129 135 141 150 154 150 148 148 147 148 158 166 152 125 121 132 138 125 81 57 60 79 101 100 83 95
141 132 127 128 126 112 98 91 92 132 161 145 128 112 334 21 91 92 99 127 142 147 147 146 150 160 176 194 233 301 323 127 133 127 124 131 124 120 123 124 115 109 111 111 109 109 108 109 112 113 107 97 86 81 74 66 66 77 92 103 111 118 125 130 131 134 142 149 154 163 166 158 141 132 134 139 152 160 131 79 77 86 83 73 81
116 116 128 135 127 117 121 121 133 195 187 141 128 144 210 60 86 77 41 46 101 143 153 150 153 164 172 176 181 199 319 348 122 121 109 64 70 104 120 129 126 119 121 124 124 125 123 119 117 116 114 108 101 97 99 99 87 77 83 98 111 119 127 133 135 138 146 153 146 134 137 139 135 131 129 141 166 168 155 121 101 100 102 95 73
133 127 132 134 130 131 138 143 155 149 110 88 89 103 91 66 76 88 65 53 51 84 142 136 147 163 164 160 160 159 159 185 109 110 111 99 79 92 104 113 118 120 125 126 120 120 124 124 119 114 113 114 118 121 124 126 125 115 114 124 132 138 144 147 142 134 130 127 120 117 118 118 125 133 135 121 122 121 109 106 111 109 109 113 62
168 148 125 135 147 150 143 149 182 164 133 111 93 95 91 101 150 146 141 144 172 269 257 174 170 169 148 136 136 142 141 151 159 123 110 103 92 91 101 117 128 134 139 133 115 112 119 122 122 121 119 119 126 139 148 153 164 172 163 153 152 158 162 160 150 136 123 111 98 94 100 109 123 128 121 101 106 98 79 86 100 92 71 58 301
143 119 126 142 151 139 136 149 169 146 131 131 142 140 144 214 170 141 134 151 166 193 264 282 157 156 128 126 129 125 114 132 153 132 118 112 105 103 117 136 144 146 146 137 123 120 125 127 127 128 127 127 137 157 174 182 180 176 168 162 162 169 176 177 170 153 136 125 118 116 109 103 110 114 109 135 144 120 87 74 86 85 40 342 316
115 104 110 108 97 103 117 124 104 108 116 125 135 139 158 207 170 133 110 107 138 149 127 46 53 59 86 106 116 117 111 166 216 119 115 119 121 123 134 151 153 145 141 139 136 137 138 134 129 130 137 149 164 176 181 169 158 166 172 173 173 174 174 172 168 160 151 147 143 131 110 103 112 114 105 115 126 120 102 105 154 142 147 285 297